TimeAST,TemperatureF,Dew PointF,Humidity,Sea Level PressureIn,VisibilityMPH,Wind Direction,Wind SpeedMPH,Gust SpeedMPH,PrecipitationIn,Events,Conditions,WindDirDegrees,DateUTC
12:53 AM,75.9,69.1,79,29.96,10.0,East,8.1,-,N/A,,Mostly Cloudy,100,2012-12-22 04:53:00
1:53 AM,75.9,68.0,76,29.94,10.0,East,12.7,-,N/A,,Overcast,100,2012-12-22 05:53:00
2:53 AM,75.0,68.0,79,29.92,10.0,East,11.5,-,N/A,,Clear,100,2012-12-22 06:53:00
3:53 AM,75.0,68.0,79,29.92,10.0,East,9.2,-,N/A,,Mostly Cloudy,90,2012-12-22 07:53:00
4:53 AM,73.9,68.0,82,29.92,10.0,East,5.8,-,N/A,,Mostly Cloudy,80,2012-12-22 08:53:00
6:53 AM,73.9,68.0,82,29.94,10.0,East,8.1,-,N/A,,Clear,80,2012-12-22 10:53:00
7:53 AM,77.0,68.0,74,29.97,10.0,East,12.7,-,N/A,,Clear,100,2012-12-22 11:53:00
8:53 AM,79.0,66.9,66,29.99,10.0,East,12.7,-,N/A,,Clear,100,2012-12-22 12:53:00
9:53 AM,81.0,68.0,65,29.99,10.0,ENE,12.7,-,N/A,,Clear,70,2012-12-22 13:53:00
10:53 AM,82.0,68.0,62,29.99,10.0,East,10.4,-,N/A,,Clear,80,2012-12-22 14:53:00
11:53 AM,82.9,66.9,58,29.98,10.0,East,15.0,19.6,N/A,,Partly Cloudy,80,2012-12-22 15:53:00
12:53 PM,82.0,66.9,60,29.96,10.0,East,11.5,-,N/A,,Clear,80,2012-12-22 16:53:00
1:53 PM,79.0,68.0,69,29.94,10.0,ENE,12.7,-,N/A,,Mostly Cloudy,60,2012-12-22 17:53:00
2:53 PM,80.1,68.0,67,29.92,10.0,East,10.4,17.3,N/A,,Scattered Clouds,80,2012-12-22 18:53:00
3:53 PM,82.0,66.9,60,29.92,10.0,East,9.2,-,N/A,,Clear,90,2012-12-22 19:53:00
4:53 PM,80.1,66.9,64,29.93,10.0,East,6.9,-,N/A,,Clear,80,2012-12-22 20:53:00
5:53 PM,77.0,66.9,71,29.94,10.0,East,6.9,-,N/A,,Clear,90,2012-12-22 21:53:00
6:53 PM,75.9,66.9,74,29.96,10.0,East,5.8,-,N/A,,Partly Cloudy,90,2012-12-22 22:53:00
7:53 PM,75.9,66.9,74,29.98,10.0,East,6.9,-,N/A,,Mostly Cloudy,100,2012-12-22 23:53:00
8:53 PM,75.0,66.9,76,29.99,10.0,ENE,3.5,-,N/A,,Clear,70,2012-12-23 00:53:00
9:53 PM,75.0,66.9,76,30.01,10.0,Calm,Calm,-,N/A,,Scattered Clouds,0,2012-12-23 01:53:00
10:53 PM,73.9,66.0,76,30.00,10.0,Calm,Calm,-,N/A,,Clear,0,2012-12-23 02:53:00
11:53 PM,73.9,66.0,76,30.01,10.0,Calm,Calm,-,N/A,,Clear,0,2012-12-23 03:53:00